STARLINK-1715 (46671 NORAD) Tracking and Keplerian Element Data

This shows tracking and keplerian element data for the satellite.

Feedback or suggestion? Click here.




ElementValue
Catalog46671
NameSTARLINK-1715
Epoch Orbit732
Epoch Day335.83336806
Epoch Year2020
RAAN254.1955
Inclination53.0494
Eccentricity0.000103
Argument of Perigee93.4078
Mean Anonmoly313.7925
Mean Motion15.71587755
Decay Rate-0.01025882
L11 46671U 20073B 20335.83336806 -.01025882 00000-0 -86778-2 0 9992
L22 46671 53.0494 254.1955 0001030 93.4078 313.7925 15.71587755 7320

Live tracking and technical data element details for STARLINK-1715 (NORAD 46671). STARLINK-1715 can be tracked NOW for your location showing map with azimuth and elevation plus other details from your city location.

Track the satellite on the map from your city or location and see movement details for azimuth, elevation, latitude, longitude, range, height, and movement on the map or in text.







IsCatalogInMostPopularTable: catalog: 46671, numindb: 7
Update: records affected: 1



GetName: 46671 STARLINK-1715

Hit Count: updated at: Tue, 01 Dec 2020 20:29:40 GMT